Time,TemperatureF,DewpointF,PressureIn,WindDirection,WindDirectionDegrees,WindSpeedMPH,WindSpeedGustMPH,Humidity,HourlyPrecipIn,Conditions,Clouds,dailyrainin,SoftwareType,DateUTC
2013-03-15 00:00:00,43.6,38.5,30.30,West,275,0.0,0.0,82,0.00,,---,0.00,VWS V14.01,2013-03-15 05:00:00,
2013-03-15 00:05:00,43.4,38.3,30.31,West,275,0.0,0.0,82,0.00,,---,0.00,VWS V14.01,2013-03-15 05:05:00,
2013-03-15 00:10:00,43.4,38.3,30.30,West,276,0.0,0.0,82,0.00,,---,0.00,VWS V14.01,2013-03-15 05:10:00,
2013-03-15 00:15:00,43.1,38.0,30.30,West,276,0.0,0.0,82,0.00,,---,0.00,VWS V14.01,2013-03-15 05:15:00,
2013-03-15 00:20:00,43.0,38.2,30.30,West,276,0.0,0.0,83,0.00,,---,0.00,VWS V14.01,2013-03-15 05:20:00,
2013-03-15 00:25:00,43.0,38.2,30.30,West,276,0.0,0.0,83,0.00,,---,0.00,VWS V14.01,2013-03-15 05:25:00,
2013-03-15 00:30:00,42.9,38.1,30.30,West,276,0.0,0.0,83,0.00,,---,0.00,VWS V14.01,2013-03-15 05:30:00,
2013-03-15 00:35:00,42.7,37.9,30.30,West,276,0.0,0.0,83,0.00,,---,0.00,VWS V14.01,2013-03-15 05:35:00,
2013-03-15 00:40:00,42.5,38.0,30.30,West,276,0.0,0.0,84,0.00,,---,0.00,VWS V14.01,2013-03-15 05:40:00,
2013-03-15 00:45:00,42.3,37.8,30.30,West,275,0.0,0.0,84,0.00,,---,0.00,VWS V14.01,2013-03-15 05:45:00,
2013-03-15 00:50:00,42.2,38.0,30.29,West,276,0.0,0.0,85,0.00,,---,0.00,VWS V14.01,2013-03-15 05:50:00,
2013-03-15 00:55:00,41.9,37.7,30.29,West,276,0.0,0.0,85,0.00,,---,0.00,VWS V14.01,2013-03-15 05:55:00,
2013-03-15 01:00:00,41.6,37.4,30.29,West,276,0.0,0.0,85,0.00,,---,0.00,VWS V14.01,2013-03-15 06:00:00,
2013-03-15 01:05:00,41.5,37.9,30.29,West,276,0.0,0.0,87,0.00,,---,0.00,VWS V14.01,2013-03-15 06:05:00,
2013-03-15 01:10:00,41.6,38.0,30.29,West,276,0.0,0.0,87,0.00,,---,0.00,VWS V14.01,2013-03-15 06:10:00,
2013-03-15 01:15:00,41.6,37.7,30.29,West,276,0.0,0.0,86,0.00,,---,0.00,VWS V14.01,2013-03-15 06:15:00,
2013-03-15 01:20:00,41.7,38.1,30.29,West,276,0.0,0.0,87,0.00,,---,0.00,VWS V14.01,2013-03-15 06:20:00,
2013-03-15 01:25:00,42.1,38.8,30.29,West,276,0.0,0.0,88,0.00,,---,0.00,VWS V14.01,2013-03-15 06:25:00,
2013-03-15 01:30:00,42.3,38.7,30.29,West,276,0.0,0.0,87,0.00,,---,0.00,VWS V14.01,2013-03-15 06:30:00,
2013-03-15 01:35:00,42.3,38.7,30.28,West,276,0.0,0.0,87,0.00,,---,0.00,VWS V14.01,2013-03-15 06:35:00,
2013-03-15 01:40:00,42.4,38.8,30.28,West,276,0.0,0.0,87,0.00,,---,0.00,VWS V14.01,2013-03-15 06:40:00,
2013-03-15 01:45:00,42.5,38.9,30.28,West,276,0.0,0.0,87,0.00,,---,0.00,VWS V14.01,2013-03-15 06:45:00,
2013-03-15 01:50:00,42.7,39.1,30.28,West,276,0.0,0.0,87,0.00,,---,0.00,VWS V14.01,2013-03-15 06:50:00,
2013-03-15 01:55:00,42.6,38.7,30.28,West,276,0.0,0.0,86,0.00,,---,0.00,VWS V14.01,2013-03-15 06:55:00,
2013-03-15 02:00:00,42.3,38.4,30.28,West,276,0.0,0.0,86,0.00,,---,0.00,VWS V14.01,2013-03-15 07:00:00,
2013-03-15 02:05:00,42.0,38.1,30.27,West,276,0.0,0.0,86,0.00,,---,0.00,VWS V14.01,2013-03-15 07:05:00,
2013-03-15 02:10:00,41.7,37.8,30.27,West,276,0.0,0.0,86,0.00,,---,0.00,VWS V14.01,2013-03-15 07:10:00,
2013-03-15 02:15:00,41.5,38.2,30.27,West,276,0.0,0.0,88,0.00,,---,0.00,VWS V14.01,2013-03-15 07:15:00,
2013-03-15 02:20:00,41.5,38.5,30.27,West,276,0.0,0.0,89,0.00,,---,0.00,VWS V14.01,2013-03-15 07:20:00,
2013-03-15 02:25:00,41.8,38.8,30.26,West,276,0.0,0.0,89,0.00,,---,0.00,VWS V14.01,2013-03-15 07:25:00,
2013-03-15 02:30:00,42.0,39.0,30.26,West,276,0.0,0.0,89,0.00,,---,0.00,VWS V14.01,2013-03-15 07:30:00,
2013-03-15 02:35:00,42.2,39.2,30.26,West,276,0.0,0.0,89,0.00,,---,0.00,VWS V14.01,2013-03-15 07:35:00,
2013-03-15 02:40:00,42.0,39.0,30.26,West,276,0.0,0.0,89,0.00,,---,0.00,VWS V14.01,2013-03-15 07:40:00,
2013-03-15 02:45:00,41.7,38.4,30.26,West,276,0.0,0.0,88,0.00,,---,0.00,VWS V14.01,2013-03-15 07:45:00,
2013-03-15 02:50:00,41.3,38.0,30.26,West,276,0.0,0.0,88,0.00,,---,0.00,VWS V14.01,2013-03-15 07:50:00,
2013-03-15 02:55:00,41.1,38.1,30.26,West,276,0.0,0.0,89,0.00,,---,0.00,VWS V14.01,2013-03-15 07:55:00,
2013-03-15 03:00:00,40.9,37.9,30.26,West,276,0.0,0.0,89,0.00,,---,0.00,VWS V14.01,2013-03-15 08:00:00,
2013-03-15 03:05:00,41.1,39.0,30.26,West,276,0.0,0.0,92,0.00,,---,0.00,VWS V14.01,2013-03-15 08:05:00,
2013-03-15 03:10:00,41.2,39.1,30.26,West,276,0.0,0.0,92,0.00,,---,0.00,VWS V14.01,2013-03-15 08:10:00,
2013-03-15 03:15:00,41.2,38.8,30.26,West,276,0.0,0.0,91,0.00,,---,0.00,VWS V14.01,2013-03-15 08:15:00,
2013-03-15 03:20:00,41.3,39.2,30.26,West,276,0.0,0.0,92,0.00,,---,0.00,VWS V14.01,2013-03-15 08:20:00,
2013-03-15 03:25:00,41.3,38.9,30.25,West,276,0.0,0.0,91,0.00,,---,0.00,VWS V14.01,2013-03-15 08:25:00,
2013-03-15 03:30:00,41.1,38.7,30.25,West,276,0.0,0.0,91,0.00,,---,0.00,VWS V14.01,2013-03-15 08:30:00,
2013-03-15 03:35:00,40.9,38.5,30.25,West,276,0.0,0.0,91,0.00,,---,0.00,VWS V14.01,2013-03-15 08:35:00,
2013-03-15 03:40:00,40.7,38.6,30.25,West,276,0.0,0.0,92,0.00,,---,0.00,VWS V14.01,2013-03-15 08:40:00,
2013-03-15 03:45:00,40.4,38.3,30.25,West,276,0.0,0.0,92,0.00,,---,0.00,VWS V14.01,2013-03-15 08:45:00,
2013-03-15 03:50:00,40.3,38.2,30.25,West,276,0.0,0.0,92,0.00,,---,0.00,VWS V14.01,2013-03-15 08:50:00,
2013-03-15 03:55:00,40.1,38.0,30.25,West,276,0.0,0.0,92,0.00,,---,0.00,VWS V14.01,2013-03-15 08:55:00,
2013-03-15 04:00:00,40.1,38.2,30.25,West,276,0.0,0.0,93,0.00,,---,0.00,VWS V14.01,2013-03-15 09:00:00,
2013-03-15 04:05:00,40.3,38.7,30.25,West,276,0.0,0.0,94,0.00,,---,0.00,VWS V14.01,2013-03-15 09:05:00,
2013-03-15 04:10:00,40.4,38.8,30.25,West,276,0.0,0.0,94,0.00,,---,0.00,VWS V14.01,2013-03-15 09:10:00,
2013-03-15 04:15:00,40.3,38.4,30.25,West,276,0.0,0.0,93,0.00,,---,0.00,VWS V14.01,2013-03-15 09:15:00,
2013-03-15 04:20:00,40.2,38.3,30.25,West,276,0.0,0.0,93,0.00,,---,0.00,VWS V14.01,2013-03-15 09:20:00,
2013-03-15 04:25:00,40.2,38.3,30.25,West,276,0.0,0.0,93,0.00,,---,0.00,VWS V14.01,2013-03-15 09:25:00,
2013-03-15 04:30:00,40.0,38.1,30.26,West,276,0.0,0.0,93,0.00,,---,0.00,VWS V14.01,2013-03-15 09:30:00,
2013-03-15 04:35:00,39.9,38.0,30.26,West,276,0.0,0.0,93,0.00,,---,0.00,VWS V14.01,2013-03-15 09:35:00,
2013-03-15 04:40:00,39.7,38.1,30.26,West,276,0.0,0.0,94,0.00,,---,0.00,VWS V14.01,2013-03-15 09:40:00,
2013-03-15 04:45:00,39.6,38.0,30.26,West,276,0.0,0.0,94,0.00,,---,0.00,VWS V14.01,2013-03-15 09:45:00,
2013-03-15 04:50:00,39.5,37.9,30.26,West,276,0.0,0.0,94,0.00,,---,0.00,VWS V14.01,2013-03-15 09:50:00,
2013-03-15 04:55:00,39.3,37.7,30.26,West,276,0.0,0.0,94,0.00,,---,0.00,VWS V14.01,2013-03-15 09:55:00,
2013-03-15 05:00:00,39.2,37.6,30.26,West,276,0.0,0.0,94,0.00,,---,0.00,VWS V14.01,2013-03-15 10:00:00,
2013-03-15 05:05:00,39.1,37.5,30.26,West,276,0.0,0.0,94,0.00,,---,0.00,VWS V14.01,2013-03-15 10:05:00,
2013-03-15 05:10:00,39.0,37.4,30.26,West,276,0.0,0.0,94,0.00,,---,0.00,VWS V14.01,2013-03-15 10:10:00,
2013-03-15 05:15:00,38.9,37.3,30.26,West,276,0.0,0.0,94,0.00,,---,0.00,VWS V14.01,2013-03-15 10:15:00,
2013-03-15 05:20:00,38.8,37.2,30.26,West,276,0.0,0.0,94,0.00,,---,0.00,VWS V14.01,2013-03-15 10:20:00,
2013-03-15 05:25:00,38.8,37.5,30.26,West,276,0.0,0.0,95,0.00,,---,0.00,VWS V14.01,2013-03-15 10:25:00,
2013-03-15 05:30:00,38.7,37.4,30.26,West,276,0.0,0.0,95,0.00,,---,0.00,VWS V14.01,2013-03-15 10:30:00,
2013-03-15 05:35:00,38.6,37.3,30.26,West,276,0.0,0.0,95,0.00,,---,0.00,VWS V14.01,2013-03-15 10:35:00,
2013-03-15 05:39:00,38.5,37.2,30.26,West,276,0.0,0.0,95,0.00,,---,0.00,VWS V14.01,2013-03-15 10:39:00,
2013-03-15 05:44:00,38.4,37.1,30.26,West,276,0.0,0.0,95,0.00,,---,0.00,VWS V14.01,2013-03-15 10:44:00,
2013-03-15 05:49:00,38.4,37.1,30.26,West,276,0.0,0.0,95,0.00,,---,0.00,VWS V14.01,2013-03-15 10:49:00,
2013-03-15 05:54:00,38.4,37.1,30.27,West,276,0.0,0.0,95,0.00,,---,0.00,VWS V14.01,2013-03-15 10:54:00,
2013-03-15 05:59:00,38.3,37.0,30.26,West,276,0.0,0.0,95,0.00,,---,0.00,VWS V14.01,2013-03-15 10:59:00,
2013-03-15 06:00:00,38.4,37.1,30.26,West,276,0.0,0.0,95,0.00,,---,0.00,VWS V14.01,2013-03-15 11:00:00,
2013-03-15 06:04:00,38.3,37.0,30.26,West,276,0.0,0.0,95,0.00,,---,0.00,VWS V14.01,2013-03-15 11:04:00,
2013-03-15 06:09:00,38.1,36.8,30.26,West,276,0.0,0.0,95,0.00,,---,0.00,VWS V14.01,2013-03-15 11:09:00,
2013-03-15 06:14:00,37.8,36.5,30.26,West,276,0.0,0.0,95,0.00,,---,0.00,VWS V14.01,2013-03-15 11:14:00,
2013-03-15 06:19:00,37.7,36.4,30.27,West,276,0.0,0.0,95,0.00,,---,0.00,VWS V14.01,2013-03-15 11:19:00,
2013-03-15 06:24:00,38.0,37.0,30.27,West,276,0.0,0.0,96,0.00,,---,0.00,VWS V14.01,2013-03-15 11:24:00,
2013-03-15 06:29:00,38.1,37.1,30.27,West,276,0.0,0.0,96,0.00,,---,0.00,VWS V14.01,2013-03-15 11:29:00,
2013-03-15 06:30:00,38.1,37.1,30.27,West,276,0.0,0.0,96,0.00,,---,0.00,VWS V14.01,2013-03-15 11:30:00,
2013-03-15 06:34:00,38.1,37.1,30.27,West,276,0.0,0.0,96,0.00,,---,0.00,VWS V14.01,2013-03-15 11:34:00,
2013-03-15 06:39:00,38.1,37.1,30.27,West,276,0.0,0.0,96,0.00,,---,0.00,VWS V14.01,2013-03-15 11:39:00,
2013-03-15 06:44:00,38.1,37.1,30.27,West,276,0.0,0.0,96,0.00,,---,0.00,VWS V14.01,2013-03-15 11:44:00,
2013-03-15 06:49:00,38.0,37.0,30.27,West,276,0.0,0.0,96,0.00,,---,0.00,VWS V14.01,2013-03-15 11:49:00,
2013-03-15 06:54:00,37.9,36.9,30.28,West,276,0.0,0.0,96,0.00,,---,0.00,VWS V14.01,2013-03-15 11:54:00,
2013-03-15 06:59:00,37.9,36.9,30.28,West,276,0.0,0.0,96,0.00,,---,0.00,VWS V14.01,2013-03-15 11:59:00,
2013-03-15 07:00:00,37.9,36.9,30.28,West,276,0.0,0.0,96,0.00,,---,0.00,VWS V14.01,2013-03-15 12:00:00,
2013-03-15 07:04:00,37.9,36.9,30.28,West,276,0.0,0.0,96,0.00,,---,0.00,VWS V14.01,2013-03-15 12:04:00,
2013-03-15 07:09:00,38.0,37.0,30.28,West,276,0.0,0.0,96,0.00,,---,0.00,VWS V14.01,2013-03-15 12:09:00,
2013-03-15 07:14:00,38.3,37.3,30.28,West,276,0.0,0.0,96,0.00,,---,0.00,VWS V14.01,2013-03-15 12:14:00,
2013-03-15 07:19:00,38.5,37.5,30.28,West,276,0.0,0.0,96,0.00,,---,0.00,VWS V14.01,2013-03-15 12:19:00,
2013-03-15 07:24:00,38.4,37.4,30.28,West,276,0.0,0.0,96,0.00,,---,0.00,VWS V14.01,2013-03-15 12:24:00,
2013-03-15 07:29:00,38.5,37.5,30.28,West,276,0.0,0.0,96,0.00,,---,0.00,VWS V14.01,2013-03-15 12:29:00,
2013-03-15 07:30:00,38.5,37.5,30.28,West,276,0.0,0.0,96,0.00,,---,0.00,VWS V14.01,2013-03-15 12:30:00,
2013-03-15 07:34:00,39.0,38.0,30.28,West,276,0.0,0.0,96,0.00,,---,0.00,VWS V14.01,2013-03-15 12:34:00,
2013-03-15 07:39:00,39.7,38.7,30.28,West,276,0.0,0.0,96,0.00,,---,0.00,VWS V14.01,2013-03-15 12:39:00,
2013-03-15 07:44:00,40.8,39.8,30.28,West,276,0.0,0.0,96,0.00,,---,0.00,VWS V14.01,2013-03-15 12:44:00,
2013-03-15 07:49:00,42.1,41.0,30.28,West,276,0.0,0.0,96,0.00,,---,0.00,VWS V14.01,2013-03-15 12:49:00,
2013-03-15 07:54:00,43.3,42.5,30.28,West,276,0.0,0.0,97,0.00,,---,0.00,VWS V14.01,2013-03-15 12:54:00,
2013-03-15 07:59:00,44.3,43.5,30.28,West,276,0.0,0.0,97,0.00,,---,0.00,VWS V14.01,2013-03-15 12:59:00,
2013-03-15 08:00:00,44.2,43.4,30.28,West,276,0.0,0.0,97,0.00,,---,0.00,VWS V14.01,2013-03-15 13:00:00,
2013-03-15 08:04:00,45.1,44.3,30.28,West,276,0.0,0.0,97,0.00,,---,0.00,VWS V14.01,2013-03-15 13:04:00,
2013-03-15 08:09:00,45.4,44.3,30.28,West,276,0.0,0.0,96,0.00,,---,0.00,VWS V14.01,2013-03-15 13:09:00,
2013-03-15 08:14:00,46.2,45.1,30.29,West,276,0.0,0.0,96,0.00,,---,0.00,VWS V14.01,2013-03-15 13:14:00,
2013-03-15 08:19:00,47.6,46.5,30.29,West,276,0.0,0.0,96,0.00,,---,0.00,VWS V14.01,2013-03-15 13:19:00,
2013-03-15 08:24:00,49.4,47.5,30.29,West,277,0.0,0.0,93,0.00,,---,0.00,VWS V14.01,2013-03-15 13:24:00,
2013-03-15 08:29:00,51.2,48.1,30.29,WSW,257,1.0,1.0,89,0.00,,---,0.00,VWS V14.01,2013-03-15 13:29:00,
2013-03-15 08:30:00,51.0,48.2,30.29,WSW,256,0.0,1.0,90,0.00,,---,0.00,VWS V14.01,2013-03-15 13:30:00,
2013-03-15 08:34:00,52.5,48.8,30.29,SSE,163,0.0,1.0,87,0.00,,---,0.00,VWS V14.01,2013-03-15 13:34:00,
2013-03-15 08:39:00,53.7,49.3,30.29,NNE,13,1.0,1.0,85,0.00,,---,0.00,VWS V14.01,2013-03-15 13:39:00,
2013-03-15 08:44:00,54.4,48.4,30.29,WSW,242,0.0,4.0,80,0.00,,---,0.00,VWS V14.01,2013-03-15 13:44:00,
2013-03-15 08:49:00,55.0,48.6,30.30,West,271,1.0,4.0,79,0.00,,---,0.00,VWS V14.01,2013-03-15 13:49:00,
2013-03-15 08:54:00,56.1,49.3,30.30,SE,141,0.0,4.0,78,0.00,,---,0.00,VWS V14.01,2013-03-15 13:54:00,
2013-03-15 08:59:00,56.9,49.1,30.30,East,85,0.0,0.0,75,0.00,,---,0.00,VWS V14.01,2013-03-15 13:59:00,
2013-03-15 09:00:00,56.9,49.1,30.30,ESE,110,1.0,4.0,75,0.00,,---,0.00,VWS V14.01,2013-03-15 14:00:00,
2013-03-15 09:04:00,57.4,49.2,30.30,SSE,149,1.0,2.0,74,0.00,,---,0.00,VWS V14.01,2013-03-15 14:04:00,
2013-03-15 09:09:00,58.2,48.8,30.30,West,276,0.0,3.0,71,0.00,,---,0.00,VWS V14.01,2013-03-15 14:09:00,
2013-03-15 09:14:00,58.7,49.0,30.30,SW,232,0.0,3.0,70,0.00,,---,0.00,VWS V14.01,2013-03-15 14:14:00,
2013-03-15 09:19:00,59.5,48.9,30.30,West,278,0.0,4.0,68,0.00,,---,0.00,VWS V14.01,2013-03-15 14:19:00,
2013-03-15 09:24:00,60.1,49.1,30.30,East,79,0.0,4.0,67,0.00,,---,0.00,VWS V14.01,2013-03-15 14:24:00,
2013-03-15 09:29:00,60.7,49.7,30.30,WSW,250,0.0,0.0,67,0.00,,---,0.00,VWS V14.01,2013-03-15 14:29:00,
2013-03-15 09:30:00,60.7,49.7,30.30,ESE,105,0.0,4.0,67,0.00,,---,0.00,VWS V14.01,2013-03-15 14:30:00,
2013-03-15 09:34:00,61.0,48.8,30.30,SSW,204,0.0,4.0,64,0.00,,---,0.00,VWS V14.01,2013-03-15 14:34:00,
2013-03-15 09:39:00,61.6,48.5,30.30,South,190,0.0,4.0,62,0.00,,---,0.00,VWS V14.01,2013-03-15 14:39:00,
2013-03-15 09:44:00,62.2,49.0,30.30,SSW,203,1.0,4.0,62,0.00,,---,0.00,VWS V14.01,2013-03-15 14:44:00,
2013-03-15 09:49:00,62.6,48.1,30.30,SSW,200,2.0,4.0,59,0.00,,---,0.00,VWS V14.01,2013-03-15 14:49:00,
2013-03-15 09:54:00,62.4,47.5,30.30,ENE,63,3.0,5.0,58,0.00,,---,0.00,VWS V14.01,2013-03-15 14:54:00,
2013-03-15 09:59:00,62.7,46.8,30.30,NNW,347,2.0,5.0,56,0.00,,---,0.00,VWS V14.01,2013-03-15 14:59:00,
2013-03-15 10:00:00,62.7,46.8,30.30,NNW,347,2.0,5.0,56,0.00,,---,0.00,VWS V14.01,2013-03-15 15:00:00,
2013-03-15 10:04:00,63.4,47.0,30.30,SSE,160,1.0,3.0,55,0.00,,---,0.00,VWS V14.01,2013-03-15 15:04:00,
2013-03-15 10:09:00,64.1,47.6,30.30,WSW,250,0.0,3.0,55,0.00,,---,0.00,VWS V14.01,2013-03-15 15:09:00,
2013-03-15 10:14:00,65.0,48.9,30.30,NNW,340,1.0,3.0,56,0.00,,---,0.00,VWS V14.01,2013-03-15 15:14:00,
2013-03-15 10:19:00,65.9,48.8,30.30,SW,226,2.0,3.0,54,0.00,,---,0.00,VWS V14.01,2013-03-15 15:19:00,
2013-03-15 10:24:00,66.4,48.3,30.30,SSW,200,1.0,3.0,52,0.00,,---,0.00,VWS V14.01,2013-03-15 15:24:00,
2013-03-15 10:29:00,66.7,47.5,30.29,SW,219,1.0,1.0,50,0.00,,---,0.00,VWS V14.01,2013-03-15 15:29:00,
2013-03-15 10:30:00,66.7,47.5,30.29,South,186,0.0,3.0,50,0.00,,---,0.00,VWS V14.01,2013-03-15 15:30:00,
2013-03-15 10:34:00,67.1,47.3,30.29,ENE,71,1.0,4.0,49,0.00,,---,0.00,VWS V14.01,2013-03-15 15:34:00,
2013-03-15 10:39:00,67.3,46.4,30.29,WSW,240,3.0,4.0,47,0.00,,---,0.00,VWS V14.01,2013-03-15 15:39:00,
2013-03-15 10:44:00,67.5,46.6,30.29,WSW,247,1.0,4.0,47,0.00,,---,0.00,VWS V14.01,2013-03-15 15:44:00,
2013-03-15 10:49:00,67.9,47.0,30.29,SE,134,0.0,4.0,47,0.00,,---,0.00,VWS V14.01,2013-03-15 15:49:00,
2013-03-15 10:54:00,68.2,47.8,30.28,East,96,1.0,4.0,48,0.00,,---,0.00,VWS V14.01,2013-03-15 15:54:00,
2013-03-15 10:59:00,68.6,47.0,30.28,NW,304,0.0,0.0,46,0.00,,---,0.00,VWS V14.01,2013-03-15 15:59:00,
2013-03-15 11:00:00,68.6,47.0,30.28,SW,226,0.0,4.0,46,0.00,,---,0.00,VWS V14.01,2013-03-15 16:00:00,
2013-03-15 11:04:00,69.0,46.8,30.28,ENE,60,0.0,6.0,45,0.00,,---,0.00,VWS V14.01,2013-03-15 16:04:00,
2013-03-15 11:09:00,69.8,46.9,30.28,WSW,245,0.0,6.0,44,0.00,,---,0.00,VWS V14.01,2013-03-15 16:09:00,
2013-03-15 11:14:00,70.3,46.2,30.28,SE,145,1.0,6.0,42,0.00,,---,0.00,VWS V14.01,2013-03-15 16:14:00,
2013-03-15 11:19:00,70.5,46.3,30.27,SSW,208,1.0,6.0,42,0.00,,---,0.00,VWS V14.01,2013-03-15 16:19:00,
2013-03-15 11:24:00,70.8,46.0,30.27,SW,228,0.0,6.0,41,0.00,,---,0.00,VWS V14.01,2013-03-15 16:24:00,
2013-03-15 11:29:00,71.2,47.0,30.27,SW,224,1.0,6.0,42,0.00,,---,0.00,VWS V14.01,2013-03-15 16:29:00,
2013-03-15 11:30:00,71.2,47.0,30.27,SW,224,1.0,6.0,42,0.00,,---,0.00,VWS V14.01,2013-03-15 16:30:00,
2013-03-15 11:34:00,71.8,48.1,30.27,ENE,77,2.0,2.0,43,0.00,,---,0.00,VWS V14.01,2013-03-15 16:34:00,
2013-03-15 11:39:00,72.1,47.1,30.26,ENE,67,1.0,3.0,41,0.00,,---,0.00,VWS V14.01,2013-03-15 16:39:00,
2013-03-15 11:44:00,72.6,46.2,30.26,SSW,204,2.0,4.0,39,0.00,,---,0.00,VWS V14.01,2013-03-15 16:44:00,
2013-03-15 11:49:00,72.3,46.0,30.26,SSW,205,3.0,5.0,39,0.00,,---,0.00,VWS V14.01,2013-03-15 16:49:00,
2013-03-15 11:54:00,72.6,46.9,30.26,NNE,33,1.0,5.0,40,0.00,,---,0.00,VWS V14.01,2013-03-15 16:54:00,
2013-03-15 11:59:00,73.3,44.8,30.25,SW,228,0.0,5.0,36,0.00,,---,0.00,VWS V14.01,2013-03-15 16:59:00,
2013-03-15 12:00:00,73.4,44.8,30.26,West,260,1.0,5.0,36,0.00,,---,0.00,VWS V14.01,2013-03-15 17:00:00,
2013-03-15 12:04:00,73.8,45.2,30.26,SE,146,1.0,3.0,36,0.00,,---,0.00,VWS V14.01,2013-03-15 17:04:00,
2013-03-15 12:09:00,73.9,44.5,30.25,SW,224,0.0,4.0,35,0.00,,---,0.00,VWS V14.01,2013-03-15 17:09:00,
2013-03-15 12:14:00,73.7,44.4,30.25,WSW,253,3.0,4.0,35,0.00,,---,0.00,VWS V14.01,2013-03-15 17:14:00,
2013-03-15 12:19:00,74.2,44.1,30.25,SE,125,2.0,4.0,34,0.00,,---,0.00,VWS V14.01,2013-03-15 17:19:00,
2013-03-15 12:24:00,74.3,43.4,30.25,SW,226,0.0,4.0,33,0.00,,---,0.00,VWS V14.01,2013-03-15 17:24:00,
2013-03-15 12:29:00,74.4,45.0,30.24,SW,217,0.0,4.0,35,0.00,,---,0.00,VWS V14.01,2013-03-15 17:29:00,
2013-03-15 12:30:00,74.4,45.0,30.24,SW,217,0.0,4.0,35,0.00,,---,0.00,VWS V14.01,2013-03-15 17:30:00,
2013-03-15 12:34:00,74.9,44.7,30.24,West,262,0.0,5.0,34,0.00,,---,0.00,VWS V14.01,2013-03-15 17:34:00,
2013-03-15 12:39:00,75.0,44.8,30.24,SSW,194,1.0,5.0,34,0.00,,---,0.00,VWS V14.01,2013-03-15 17:39:00,
2013-03-15 12:44:00,74.9,44.7,30.24,South,184,1.0,5.0,34,0.00,,---,0.00,VWS V14.01,2013-03-15 17:44:00,
2013-03-15 12:49:00,74.9,45.4,30.23,SW,219,2.0,5.0,35,0.00,,---,0.00,VWS V14.01,2013-03-15 17:49:00,
2013-03-15 12:54:00,75.0,44.0,30.23,SE,146,0.0,5.0,33,0.00,,---,0.00,VWS V14.01,2013-03-15 17:54:00,
2013-03-15 12:59:00,75.4,45.1,30.23,East,89,1.0,5.0,34,0.00,,---,0.00,VWS V14.01,2013-03-15 17:59:00,
2013-03-15 13:00:00,75.4,44.3,30.23,NNW,336,3.0,5.0,33,0.00,,---,0.00,VWS V14.01,2013-03-15 18:00:00,
2013-03-15 13:04:00,75.4,45.1,30.23,South,179,1.0,3.0,34,0.00,,---,0.00,VWS V14.01,2013-03-15 18:04:00,
2013-03-15 13:09:00,75.5,45.2,30.22,SE,129,1.0,5.0,34,0.00,,---,0.00,VWS V14.01,2013-03-15 18:09:00,
2013-03-15 13:14:00,76.1,44.9,30.22,North,353,0.0,5.0,33,0.00,,---,0.00,VWS V14.01,2013-03-15 18:14:00,
2013-03-15 13:19:00,75.9,44.8,30.22,NNE,18,2.0,5.0,33,0.00,,---,0.00,VWS V14.01,2013-03-15 18:19:00,
2013-03-15 13:24:00,75.8,46.2,30.22,SE,132,0.0,6.0,35,0.00,,---,0.00,VWS V14.01,2013-03-15 18:24:00,
2013-03-15 13:29:00,75.7,45.4,30.21,WSW,255,1.0,6.0,34,0.00,,---,0.00,VWS V14.01,2013-03-15 18:29:00,
2013-03-15 13:30:00,75.7,45.4,30.21,WSW,255,1.0,6.0,34,0.00,,---,0.00,VWS V14.01,2013-03-15 18:30:00,
2013-03-15 13:34:00,75.8,46.2,30.21,ESE,102,1.0,4.0,35,0.00,,---,0.00,VWS V14.01,2013-03-15 18:34:00,
2013-03-15 13:39:00,75.9,44.8,30.21,SSW,195,3.0,5.0,33,0.00,,---,0.00,VWS V14.01,2013-03-15 18:39:00,
2013-03-15 13:44:00,75.8,43.9,30.20,East,89,0.0,8.0,32,0.00,,---,0.00,VWS V14.01,2013-03-15 18:44:00,
2013-03-15 13:49:00,76.1,44.1,30.20,SW,224,0.0,8.0,32,0.00,,---,0.00,VWS V14.01,2013-03-15 18:49:00,
2013-03-15 13:54:00,76.4,43.6,30.20,NNW,339,1.0,8.0,31,0.00,,---,0.00,VWS V14.01,2013-03-15 18:54:00,
2013-03-15 13:59:00,76.4,44.4,30.19,South,185,3.0,8.0,32,0.00,,---,0.00,VWS V14.01,2013-03-15 18:59:00,
2013-03-15 14:00:00,76.4,44.4,30.19,SSW,195,3.0,8.0,32,0.00,,---,0.00,VWS V14.01,2013-03-15 19:00:00,
2013-03-15 14:04:00,76.2,43.4,30.19,ENE,67,1.0,6.0,31,0.00,,---,0.00,VWS V14.01,2013-03-15 19:04:00,
2013-03-15 14:09:00,76.2,45.0,30.18,SSW,206,1.0,6.0,33,0.00,,---,0.00,VWS V14.01,2013-03-15 19:09:00,
2013-03-15 14:14:00,76.3,45.9,30.18,SSW,201,1.0,7.0,34,0.00,,---,0.00,VWS V14.01,2013-03-15 19:14:00,
2013-03-15 14:19:00,75.9,46.3,30.18,SSW,203,3.0,7.0,35,0.00,,---,0.00,VWS V14.01,2013-03-15 19:19:00,
2013-03-15 14:24:00,75.5,45.2,30.18,SSE,153,1.0,7.0,34,0.00,,---,0.00,VWS V14.01,2013-03-15 19:24:00,
2013-03-15 14:29:00,75.2,44.2,30.17,South,187,8.0,10.0,33,0.00,,---,0.00,VWS V14.01,2013-03-15 19:29:00,
2013-03-15 14:30:00,75.2,44.2,30.18,SSW,201,5.0,10.0,33,0.00,,---,0.00,VWS V14.01,2013-03-15 19:30:00,
2013-03-15 14:34:00,74.7,43.7,30.17,SSW,204,0.0,5.0,33,0.00,,---,0.00,VWS V14.01,2013-03-15 19:34:00,
2013-03-15 14:39:00,74.8,43.8,30.17,SSW,197,4.0,5.0,33,0.00,,---,0.00,VWS V14.01,2013-03-15 19:39:00,
2013-03-15 14:44:00,74.5,43.5,30.17,SSW,210,2.0,6.0,33,0.00,,---,0.00,VWS V14.01,2013-03-15 19:44:00,
2013-03-15 14:49:00,74.4,43.5,30.17,SW,227,2.0,6.0,33,0.00,,---,0.00,VWS V14.01,2013-03-15 19:49:00,
2013-03-15 14:54:00,74.5,43.5,30.16,SE,128,2.0,6.0,33,0.00,,---,0.00,VWS V14.01,2013-03-15 19:54:00,
2013-03-15 14:59:00,74.5,43.5,30.16,NE,38,1.0,6.0,33,0.00,,---,0.00,VWS V14.01,2013-03-15 19:59:00,
2013-03-15 15:00:00,74.5,43.5,30.16,SSW,193,0.0,6.0,33,0.00,,---,0.00,VWS V14.01,2013-03-15 20:00:00,
2013-03-15 15:04:00,74.6,43.6,30.16,SSW,200,1.0,4.0,33,0.00,,---,0.00,VWS V14.01,2013-03-15 20:04:00,
2013-03-15 15:09:00,74.1,42.4,30.16,SSW,197,4.0,7.0,32,0.00,,---,0.00,VWS V14.01,2013-03-15 20:09:00,
2013-03-15 15:14:00,73.7,42.0,30.15,East,96,1.0,8.0,32,0.00,,---,0.00,VWS V14.01,2013-03-15 20:14:00,
2013-03-15 15:19:00,73.1,42.3,30.15,SSW,211,1.0,8.0,33,0.00,,---,0.00,VWS V14.01,2013-03-15 20:19:00,
2013-03-15 15:24:00,72.8,42.0,30.15,SW,217,2.0,8.0,33,0.00,,---,0.00,VWS V14.01,2013-03-15 20:24:00,
2013-03-15 15:29:00,72.4,41.7,30.15,SSE,148,3.0,9.0,33,0.00,,---,0.00,VWS V14.01,2013-03-15 20:29:00,
2013-03-15 15:30:00,72.3,41.6,30.15,SSW,195,3.0,9.0,33,0.00,,---,0.00,VWS V14.01,2013-03-15 20:30:00,
2013-03-15 15:34:00,72.5,41.8,30.15,SW,235,2.0,7.0,33,0.00,,---,0.00,VWS V14.01,2013-03-15 20:34:00,
2013-03-15 15:39:00,72.5,41.8,30.15,SW,215,5.0,7.0,33,0.00,,---,0.00,VWS V14.01,2013-03-15 20:39:00,
2013-03-15 15:44:00,72.0,41.3,30.15,South,173,1.0,7.0,33,0.00,,---,0.00,VWS V14.01,2013-03-15 20:44:00,
2013-03-15 15:49:00,72.0,41.3,30.15,South,170,2.0,7.0,33,0.00,,---,0.00,VWS V14.01,2013-03-15 20:49:00,
2013-03-15 15:54:00,72.0,41.3,30.15,SSW,203,1.0,7.0,33,0.00,,---,0.00,VWS V14.01,2013-03-15 20:54:00,
2013-03-15 15:59:00,71.9,39.7,30.15,SW,215,2.0,7.0,31,0.00,,---,0.00,VWS V14.01,2013-03-15 20:59:00,
2013-03-15 16:00:00,71.9,39.7,30.15,SSW,198,1.0,7.0,31,0.00,,---,0.00,VWS V14.01,2013-03-15 21:00:00,
2013-03-15 16:04:00,71.4,39.2,30.15,SSW,199,1.0,6.0,31,0.00,,---,0.00,VWS V14.01,2013-03-15 21:04:00,
2013-03-15 16:09:00,71.5,40.1,30.15,ENE,78,0.0,6.0,32,0.00,,---,0.00,VWS V14.01,2013-03-15 21:09:00,
2013-03-15 16:14:00,71.6,40.2,30.15,South,190,1.0,7.0,32,0.00,,---,0.00,VWS V14.01,2013-03-15 21:14:00,
2013-03-15 16:19:00,71.2,40.7,30.14,SW,228,0.0,7.0,33,0.00,,---,0.00,VWS V14.01,2013-03-15 21:19:00,
2013-03-15 16:24:00,71.0,39.7,30.15,SSW,211,1.0,7.0,32,0.00,,---,0.00,VWS V14.01,2013-03-15 21:24:00,
2013-03-15 16:29:00,70.7,39.4,30.15,South,173,3.0,7.0,32,0.00,,---,0.00,VWS V14.01,2013-03-15 21:29:00,
2013-03-15 16:30:00,70.7,39.4,30.15,SSE,165,4.0,7.0,32,0.00,,---,0.00,VWS V14.01,2013-03-15 21:30:00,
2013-03-15 16:34:00,70.2,39.0,30.14,SSW,205,4.0,5.0,32,0.00,,---,0.00,VWS V14.01,2013-03-15 21:34:00,
2013-03-15 16:39:00,69.8,39.4,30.15,SSW,201,2.0,7.0,33,0.00,,---,0.00,VWS V14.01,2013-03-15 21:39:00,
2013-03-15 16:44:00,69.6,39.2,30.15,South,179,3.0,7.0,33,0.00,,---,0.00,VWS V14.01,2013-03-15 21:44:00,
2013-03-15 16:49:00,69.6,38.5,30.15,SSW,201,1.0,7.0,32,0.00,,---,0.00,VWS V14.01,2013-03-15 21:49:00,
2013-03-15 16:54:00,69.4,38.3,30.15,SW,215,2.0,7.0,32,0.00,,---,0.00,VWS V14.01,2013-03-15 21:54:00,
2013-03-15 16:59:00,69.5,38.4,30.15,South,190,0.0,7.0,32,0.00,,---,0.00,VWS V14.01,2013-03-15 21:59:00,
2013-03-15 17:00:00,69.5,38.4,30.15,South,190,0.0,7.0,32,0.00,,---,0.00,VWS V14.01,2013-03-15 22:00:00,
2013-03-15 17:04:00,69.4,37.5,30.15,SW,226,1.0,6.0,31,0.00,,---,0.00,VWS V14.01,2013-03-15 22:04:00,
2013-03-15 17:09:00,69.3,39.0,30.14,SSW,195,0.0,6.0,33,0.00,,---,0.00,VWS V14.01,2013-03-15 22:09:00,
2013-03-15 17:14:00,69.1,38.0,30.14,SSW,194,3.0,6.0,32,0.00,,---,0.00,VWS V14.01,2013-03-15 22:14:00,
2013-03-15 17:19:00,68.9,37.8,30.14,SSW,200,0.0,6.0,32,0.00,,---,0.00,VWS V14.01,2013-03-15 22:19:00,
2013-03-15 17:24:00,68.7,38.5,30.15,SSW,203,0.0,6.0,33,0.00,,---,0.00,VWS V14.01,2013-03-15 22:24:00,
2013-03-15 17:29:00,68.5,38.3,30.14,SSW,205,0.0,6.0,33,0.00,,---,0.00,VWS V14.01,2013-03-15 22:29:00,
2013-03-15 17:30:00,68.5,38.3,30.14,SSW,205,0.0,6.0,33,0.00,,---,0.00,VWS V14.01,2013-03-15 22:30:00,
2013-03-15 17:34:00,68.3,38.1,30.15,SW,225,1.0,5.0,33,0.00,,---,0.00,VWS V14.01,2013-03-15 22:34:00,
2013-03-15 17:39:00,68.2,38.8,30.14,SW,219,0.0,5.0,34,0.00,,---,0.00,VWS V14.01,2013-03-15 22:39:00,
2013-03-15 17:44:00,68.3,38.9,30.14,SSW,207,0.0,5.0,34,0.00,,---,0.00,VWS V14.01,2013-03-15 22:44:00,
2013-03-15 17:49:00,68.1,39.4,30.14,SSW,212,2.0,5.0,35,0.00,,---,0.00,VWS V14.01,2013-03-15 22:49:00,
2013-03-15 17:54:00,67.6,39.0,30.14,SSE,161,0.0,5.0,35,0.00,,---,0.00,VWS V14.01,2013-03-15 22:54:00,
2013-03-15 17:59:00,67.2,39.4,30.15,SW,232,1.0,5.0,36,0.00,,---,0.00,VWS V14.01,2013-03-15 22:59:00,
2013-03-15 18:00:00,67.2,39.4,30.15,SW,232,0.0,5.0,36,0.00,,---,0.00,VWS V14.01,2013-03-15 23:00:00,
2013-03-15 18:04:00,66.9,40.5,30.15,SSW,212,1.0,3.0,38,0.00,,---,0.00,VWS V14.01,2013-03-15 23:04:00,
2013-03-15 18:09:00,66.6,40.9,30.15,SSE,168,2.0,4.0,39,0.00,,---,0.00,VWS V14.01,2013-03-15 23:09:00,
2013-03-15 18:14:00,66.2,40.5,30.15,South,183,3.0,5.0,39,0.00,,---,0.00,VWS V14.01,2013-03-15 23:14:00,
2013-03-15 18:19:00,65.9,40.9,30.15,SSW,207,1.0,5.0,40,0.00,,---,0.00,VWS V14.01,2013-03-15 23:19:00,
2013-03-15 18:24:00,65.5,41.2,30.15,SSW,211,1.0,2.0,41,0.00,,---,0.00,VWS V14.01,2013-03-15 23:24:00,
2013-03-15 18:29:00,65.2,41.5,30.15,SW,232,0.0,5.0,42,0.00,,---,0.00,VWS V14.01,2013-03-15 23:29:00,
2013-03-15 18:30:00,65.2,41.5,30.15,SW,233,1.0,5.0,42,0.00,,---,0.00,VWS V14.01,2013-03-15 23:30:00,
2013-03-15 18:34:00,64.9,41.3,30.15,SSW,205,2.0,3.0,42,0.00,,---,0.00,VWS V14.01,2013-03-15 23:34:00,
2013-03-15 18:39:00,64.5,40.9,30.16,SSW,193,3.0,4.0,42,0.00,,---,0.00,VWS V14.01,2013-03-15 23:39:00,
2013-03-15 18:44:00,64.1,41.2,30.16,SW,235,0.0,5.0,43,0.00,,---,0.00,VWS V14.01,2013-03-15 23:44:00,
2013-03-15 18:49:00,63.7,40.8,30.16,SSW,198,0.0,5.0,43,0.00,,---,0.00,VWS V14.01,2013-03-15 23:49:00,
2013-03-15 18:54:00,63.3,41.0,30.16,SSW,211,0.0,5.0,44,0.00,,---,0.00,VWS V14.01,2013-03-15 23:54:00,
2013-03-15 18:59:00,63.0,40.8,30.16,SSW,197,2.0,5.0,44,0.00,,---,0.00,VWS V14.01,2013-03-15 23:59:00,
2013-03-15 19:00:00,63.0,40.8,30.16,SSW,197,2.0,5.0,44,0.00,,---,0.00,VWS V14.01,2013-03-16 00:00:00,
2013-03-15 19:04:00,62.7,40.5,30.16,SSW,212,2.0,3.0,44,0.00,,---,0.00,VWS V14.01,2013-03-16 00:04:00,
2013-03-15 19:09:00,62.4,40.8,30.16,SSW,204,0.0,3.0,45,0.00,,---,0.00,VWS V14.01,2013-03-16 00:09:00,
2013-03-15 19:14:00,62.0,40.4,30.16,SSW,204,0.0,3.0,45,0.00,,---,0.00,VWS V14.01,2013-03-16 00:14:00,
2013-03-15 19:19:00,61.6,40.6,30.16,SSW,204,1.0,3.0,46,0.00,,---,0.00,VWS V14.01,2013-03-16 00:19:00,
2013-03-15 19:24:00,61.3,40.4,30.16,SSW,211,0.0,3.0,46,0.00,,---,0.00,VWS V14.01,2013-03-16 00:24:00,
2013-03-15 19:29:00,61.0,40.7,30.16,SW,215,0.0,3.0,47,0.00,,---,0.00,VWS V14.01,2013-03-16 00:29:00,
2013-03-15 19:30:00,61.0,40.7,30.16,SW,214,0.0,3.0,47,0.00,,---,0.00,VWS V14.01,2013-03-16 00:30:00,
2013-03-15 19:34:00,60.7,40.4,30.16,SSW,201,0.0,1.0,47,0.00,,---,0.00,VWS V14.01,2013-03-16 00:34:00,
2013-03-15 19:39:00,60.4,40.6,30.16,SW,214,0.0,2.0,48,0.00,,---,0.00,VWS V14.01,2013-03-16 00:39:00,
2013-03-15 19:44:00,60.1,40.4,30.16,SSW,207,0.0,2.0,48,0.00,,---,0.00,VWS V14.01,2013-03-16 00:44:00,
2013-03-15 19:49:00,59.8,40.6,30.16,SW,214,0.0,2.0,49,0.00,,---,0.00,VWS V14.01,2013-03-16 00:49:00,
2013-03-15 19:54:00,59.4,40.8,30.16,SW,214,0.0,2.0,50,0.00,,---,0.00,VWS V14.01,2013-03-16 00:54:00,
2013-03-15 19:59:00,59.1,41.5,30.16,SSW,203,0.0,2.0,52,0.00,,---,0.00,VWS V14.01,2013-03-16 00:59:00,
2013-03-15 20:00:00,59.1,41.5,30.16,SSW,203,0.0,2.0,52,0.00,,---,0.00,VWS V14.01,2013-03-16 01:00:00,
2013-03-15 20:04:00,58.8,41.7,30.16,SSW,205,0.0,0.0,53,0.00,,---,0.00,VWS V14.01,2013-03-16 01:04:00,
2013-03-15 20:09:00,58.5,42.4,30.16,SSW,212,0.0,2.0,55,0.00,,---,0.00,VWS V14.01,2013-03-16 01:09:00,
2013-03-15 20:14:00,58.3,42.7,30.16,SSW,198,0.0,3.0,56,0.00,,---,0.00,VWS V14.01,2013-03-16 01:14:00,
2013-03-15 20:19:00,58.2,43.1,30.16,SSW,203,0.0,3.0,57,0.00,,---,0.00,VWS V14.01,2013-03-16 01:19:00,
2013-03-15 20:24:00,58.0,43.3,30.16,SSW,210,0.0,3.0,58,0.00,,---,0.00,VWS V14.01,2013-03-16 01:24:00,
2013-03-15 20:29:00,57.9,43.7,30.16,SSW,208,1.0,3.0,59,0.00,,---,0.00,VWS V14.01,2013-03-16 01:29:00,
2013-03-15 20:30:00,57.8,43.6,30.16,SSW,208,0.0,3.0,59,0.00,,---,0.00,VWS V14.01,2013-03-16 01:30:00,
2013-03-15 20:34:00,57.8,44.0,30.16,SSW,212,0.0,3.0,60,0.00,,---,0.00,VWS V14.01,2013-03-16 01:34:00,
2013-03-15 20:39:00,57.8,44.5,30.16,SSW,208,1.0,3.0,61,0.00,,---,0.00,VWS V14.01,2013-03-16 01:39:00,
2013-03-15 20:44:00,57.8,44.9,30.16,SSW,195,2.0,3.0,62,0.00,,---,0.00,VWS V14.01,2013-03-16 01:44:00,
2013-03-15 20:49:00,57.7,45.2,30.16,SW,214,0.0,3.0,63,0.00,,---,0.00,VWS V14.01,2013-03-16 01:49:00,
2013-03-15 20:54:00,57.6,45.1,30.16,SSW,200,2.0,3.0,63,0.00,,---,0.00,VWS V14.01,2013-03-16 01:54:00,
2013-03-15 20:59:00,57.6,45.9,30.15,South,191,1.0,3.0,65,0.00,,---,0.00,VWS V14.01,2013-03-16 01:59:00,
2013-03-15 21:00:00,57.6,45.9,30.16,SSW,201,0.0,3.0,65,0.00,,---,0.00,VWS V14.01,2013-03-16 02:00:00,
2013-03-15 21:04:00,57.7,46.4,30.16,SSW,198,2.0,5.0,66,0.00,,---,0.00,VWS V14.01,2013-03-16 02:04:00,
2013-03-15 21:09:00,57.7,46.4,30.16,SSW,203,0.0,5.0,66,0.00,,---,0.00,VWS V14.01,2013-03-16 02:09:00,
2013-03-15 21:14:00,57.7,47.2,30.16,South,177,0.0,5.0,68,0.00,,---,0.00,VWS V14.01,2013-03-16 02:14:00,
2013-03-15 21:19:00,57.6,47.1,30.16,SW,227,1.0,5.0,68,0.00,,---,0.00,VWS V14.01,2013-03-16 02:19:00,
2013-03-15 21:24:00,57.7,47.6,30.16,SSW,208,0.0,5.0,69,0.00,,---,0.00,VWS V14.01,2013-03-16 02:24:00,
2013-03-15 21:29:00,57.6,47.5,30.16,SSW,212,0.0,5.0,69,0.00,,---,0.00,VWS V14.01,2013-03-16 02:29:00,
2013-03-15 21:30:00,57.6,47.5,30.16,SSW,212,0.0,5.0,69,0.00,,---,0.00,VWS V14.01,2013-03-16 02:30:00,
2013-03-15 21:34:00,57.3,47.2,30.16,SW,217,0.0,1.0,69,0.00,,---,0.00,VWS V14.01,2013-03-16 02:34:00,
2013-03-15 21:39:00,57.2,47.5,30.16,SSW,197,0.0,1.0,70,0.00,,---,0.00,VWS V14.01,2013-03-16 02:39:00,
2013-03-15 21:44:00,57.2,47.5,30.16,NNE,30,0.0,3.0,70,0.00,,---,0.00,VWS V14.01,2013-03-16 02:44:00,
2013-03-15 21:49:00,57.1,47.4,30.16,SSW,211,0.0,3.0,70,0.00,,---,0.00,VWS V14.01,2013-03-16 02:49:00,
2013-03-15 21:54:00,57.1,47.0,30.16,SSW,207,0.0,3.0,69,0.00,,---,0.00,VWS V14.01,2013-03-16 02:54:00,
2013-03-15 21:59:00,57.2,47.1,30.16,SSW,211,0.0,3.0,69,0.00,,---,0.00,VWS V14.01,2013-03-16 02:59:00,
2013-03-15 22:00:00,57.2,47.1,30.16,SSW,205,0.0,3.0,69,0.00,,---,0.00,VWS V14.01,2013-03-16 03:00:00,
2013-03-15 22:04:00,57.2,46.8,30.16,SW,218,0.0,3.0,68,0.00,,---,0.00,VWS V14.01,2013-03-16 03:04:00,
2013-03-15 22:09:00,57.2,46.8,30.16,East,81,0.0,3.0,68,0.00,,---,0.00,VWS V14.01,2013-03-16 03:09:00,
2013-03-15 22:14:00,57.1,46.7,30.16,SSW,207,0.0,3.0,68,0.00,,---,0.00,VWS V14.01,2013-03-16 03:14:00,
2013-03-15 22:19:00,57.1,46.7,30.16,SSW,195,1.0,3.0,68,0.00,,---,0.00,VWS V14.01,2013-03-16 03:19:00,
2013-03-15 22:24:00,57.0,46.9,30.16,SW,217,0.0,3.0,69,0.00,,---,0.00,VWS V14.01,2013-03-16 03:24:00,
2013-03-15 22:29:00,56.9,46.8,30.16,SSW,200,1.0,3.0,69,0.00,,---,0.00,VWS V14.01,2013-03-16 03:29:00,
2013-03-15 22:30:00,56.9,46.8,30.16,SSW,198,0.0,3.0,69,0.00,,---,0.00,VWS V14.01,2013-03-16 03:30:00,
2013-03-15 22:34:00,56.8,46.8,30.16,SW,214,1.0,1.0,69,0.00,,---,0.00,VWS V14.01,2013-03-16 03:34:00,
2013-03-15 22:39:00,56.7,47.0,30.15,SW,221,1.0,2.0,70,0.00,,---,0.00,VWS V14.01,2013-03-16 03:39:00,
2013-03-15 22:44:00,56.6,46.9,30.15,SSW,195,0.0,2.0,70,0.00,,---,0.00,VWS V14.01,2013-03-16 03:44:00,
2013-03-15 22:49:00,56.5,47.2,30.15,SW,219,0.0,2.0,71,0.00,,---,0.00,VWS V14.01,2013-03-16 03:49:00,
2013-03-15 22:54:00,56.4,47.1,30.14,SSW,200,1.0,2.0,71,0.00,,---,0.00,VWS V14.01,2013-03-16 03:54:00,
2013-03-15 22:59:00,56.4,47.1,30.14,South,181,0.0,3.0,71,0.00,,---,0.00,VWS V14.01,2013-03-16 03:59:00,
2013-03-15 23:00:00,56.4,47.1,30.14,South,181,0.0,0.0,71,0.00,,---,0.00,VWS V14.01,2013-03-16 04:00:00,
2013-03-15 23:05:00,56.5,47.2,30.14,SSW,195,1.0,5.0,71,0.00,,---,0.00,VWS V14.01,2013-03-16 04:05:00,
2013-03-15 23:10:00,56.6,47.7,30.14,SSW,204,0.0,5.0,72,0.00,,---,0.00,VWS V14.01,2013-03-16 04:10:00,
2013-03-15 23:15:00,56.7,47.8,30.14,SSW,207,0.0,5.0,72,0.00,,---,0.00,VWS V14.01,2013-03-16 04:15:00,
2013-03-15 23:20:00,56.9,48.0,30.14,SSW,195,0.0,5.0,72,0.00,,---,0.00,VWS V14.01,2013-03-16 04:20:00,
2013-03-15 23:25:00,57.0,48.1,30.14,SSW,204,2.0,5.0,72,0.00,,---,0.00,VWS V14.01,2013-03-16 04:25:00,
2013-03-15 23:30:00,57.0,48.1,30.14,West,270,0.0,0.0,72,0.00,,---,0.00,VWS V14.01,2013-03-16 04:30:00,
2013-03-15 23:35:00,57.0,48.4,30.14,South,184,1.0,4.0,73,0.00,,---,0.00,VWS V14.01,2013-03-16 04:35:00,
2013-03-15 23:40:00,56.9,48.3,30.14,SSW,193,0.0,4.0,73,0.00,,---,0.00,VWS V14.01,2013-03-16 04:40:00,
2013-03-15 23:45:00,56.8,48.2,30.14,South,188,0.0,4.0,73,0.00,,---,0.00,VWS V14.01,2013-03-16 04:45:00,
2013-03-15 23:50:00,56.8,48.2,30.14,SSW,211,0.0,4.0,73,0.00,,---,0.00,VWS V14.01,2013-03-16 04:50:00,
2013-03-15 23:55:00,56.7,48.5,30.13,SSW,208,2.0,4.0,74,0.00,,---,0.00,VWS V14.01,2013-03-16 04:55:00,